STARLINK-34801, 66076

Orbit data source: Space-Track

STARLINK-34801, 66076 is a payload satellite owned by SpaceX/Seattle (US) in LEO that was launched on Sun, 19 Oct 2025 UTC via an FALCON 9 launch vehicle from the Air Force Eastern Test Range (AFETR). Payload-class satellites include a variety of spacecraft equipped with specific instruments for various scientific and technological missions. These include communications satellites like Starlink; space stations such as the ISS; scientific satellites like the Hubble; Earth observation satellites from companies like Planet Labs, Umbra, and HawkEye 360; GPS; miniature CubeSats for education and research; and military/defense satellites.

Loading next visibility...
Identifier
66076, 2025-235U
Orbit
LEO
Country
Flag of USUS
Related business
Manufacturer
SpaceX/Seattle
Mission
Operational Commercial Communications
Bus & Motor
STARLINK V2MO, Unknown motor
Mass
575 kg wet, ~530 kg dry
Launch date (UTC)
2025-10-19 (8 months ago)
Launch vehicle
FALCON 9
Launch site
Air Force Eastern Test Range (AFETR)
Object type
Payload
Rocket body
Debris
Shape & HBR
Box + 2 Pan, 17.7 m
Radar Cross Section
36.964 m², Large (>1 m²)

Expand to show TLE details & history
Last TLE update: 19 hours ago

TLE from 19 hours ago
0 STARLINK-34801
1 66076U 25235U   26171.19968711  .00012739  00000-0  44179-3 0  9991
2 66076  53.1603 129.3028 0001251  86.4966 273.6177 15.30176975 38613
Epoch: 2026-06-20T04:47Z
TLE epoch observation values (Epoch: 2026-06-20T04:47:32.966Z)
Latitude
-0.00008°
Longitude
148.99765°
Altitude
476.13 km
Speed
7.629 km/s
True Right ascension
08h 37m 12s
True Declination
0° 00' 00"
Sunlit
Object was in daylight at epoch
Visualization orbit readout
Latitude
Unknown
Longitude
Unknown
Altitude
Unknown
Speed
Unknown
Apparent Right ascension
Unknown
Apparent Declination
Unknown
Sunlit
N/A
Visualization observer readout
Local Sidereal Time
10:17:58
Azimuth
Unknown
Elevation
Unknown
Doppler factor
Unknown
Orbital elements
Apogee altitude
476.398 km
Perigee altitude
474.683 km
Semi-major axis
6,853.677 km
Eccentricity
0.00013
Inclination
53.1603°
RAAN
129.3028°
Arg. of periapsis
86.4966°
True anomaly
273.60339°
Mean anomaly
273.6177°
Eccentric anomaly
273.61055°
Mean motion
3.82523 °/min
Orbital period
94.11 mins
BSTAR
0.00044179
Loading maneuver chart data...
Computing Atmospheric mass density...
Loading historical data...
Loading historical data...
Loading historical data...
Loading historical data...
Loading historical data...
Loading historical data...
Loading historical data...

Documentation

Showing up to 5 results
|